User: anonymous   Login
Location: Brno
(49.2000°N, 16.6330°E)
Time: 21:31:15
(UTC+02:00)
Language:

RESURS DK-1 - Orbit

View from above orbital plane
View from above orbital plane
View from above satellite
View from above satellite

Ground track
Ground track

The orbit data is extracted from the following two-line orbital elements,

1 29228U 06021A   17115.90112613 +.00000386 +00000-0 +36656-4 0  9997
2 29228 069.9359 231.1011 0002403 025.1652 334.9625 15.02137364600241
Epoch (UTC): 25 April 2017 21:37:37
Eccentricity: 0.0002403
inclination: 69.9359°
perigee height: 558 km
apogee height: 562 km
right ascension of ascending node: 231.1011°
argument of perigee: 25.1652°
revolutions per day: 15.02137364
mean anomaly at epoch: 334.9625°
orbit number at epoch: 60024

The dashed part of the orbit path shows where the satellite is in the earth's shadow,  

DLR